Weather observations for the past three days for
Point Thomson Airstrip
Imperial (Metric)
Date Time (akdt) Wind (mph) Vis. (mi.) Weather Sky Cond. Temperature (ºF) Relative Humidity Wind Chill (°F) Heat Index (°F) Pressure Precipitation (in)
Air Dwpt 6 hour altimeter (in) sea level (mb) 1 hr 3 hr 6 hr
Max. Min.
15 03:15 NW 5 3.00 Fog/Mist OVC006 33.8 32.9 97% 30 29.52 0.0
15 02:55 NW 5 4.00 Fog/Mist BKN003 OVC009 33.8 32.9 97% 30 29.51 0.0
15 02:35 NW 5 3.00 Fog/Mist BKN003 OVC009 33.8 32.9 97% 30 29.49 0.0
15 02:15 NW 5 3.00 Fog/Mist OVC003 34 32.9 96% 30 29.49 0.0
15 01:55 Calm 4.00 Fog/Mist OVC003 34.3 33.4 97% 29.49 0.0
15 01:35 Calm 4.00 Light Rain OVC003 34.7 33.8 97% 29.49 0.0
15 01:15 Calm 4.00 Fog/Mist OVC003 34.7 33.8 97% 29.49 0.0
15 00:55 Calm 5.00 Fog/Mist BKN003 OVC008 34.7 33.8 97% 29.49 0.0
15 00:35 Calm 5.00 Fog/Mist BKN003 OVC008 34.3 33.4 97% 29.48 0.0
15 00:15 NE 3 5.00 Fog/Mist BKN005 OVC008 34.2 33.3 97% 29.5 0.0
14 23:55 NE 5 5.00 Fog/Mist BKN005 OVC008 34.2 33.4 97% 31 29.5 0.0
14 23:35 NE 6 5.00 Fog/Mist OVC005 34 33.1 97% 29 29.5 0.0
14 23:15 NE 5 5.00 Fog/Mist OVC005 33.8 32.9 97% 30 29.49 0.0
14 22:55 NE 7 5.00 Fog/Mist OVC005 34 33.1 97% 29 29.49 0.0
14 22:35 NE 8 5.00 Fog/Mist OVC005 34 33.1 97% 28 29.49 0.0
14 22:15 NE 8 5.00 Fog/Mist OVC005 34 33.1 97% 28 29.47 0.0
14 21:55 NE 8 7.00 Overcast OVC005 34 33.1 36.5 34 97% 28 29.46 0.0
14 21:35 NE 12 5.00 Fog/Mist OVC005 34 33.1 97% 26 29.48 0.0
14 21:15 NE 12 7.00 Light Rain OVC005 34.3 33.3 96% 27 29.46 0.0
14 20:55 NE 8 3.00 Light Rain BKN005 OVC080 34.7 33.4 95% 29 29.49 0.0
14 20:35 NE 9 5.00 Light Rain OVC005 34.7 33.6 96% 28 29.5 0.0
14 20:15 NE 8 5.00 Light Rain OVC005 34.7 33.4 95% 29 29.51 0.0
14 19:55 NE 8 5.00 Light Rain OVC005 34.5 33.3 95% 29 29.49 0.0
14 19:35 E 9 7.00 Light Rain BKN005 OVC010 34.3 33.1 95% 28 29.51 0.0
14 19:15 NE 8 7.00 Light Rain BKN005 BKN028 OVC085 34.7 33.3 94% 29 29.51 0.0
14 18:55 NE 9 7.00 Light Rain SCT005 BKN016 OVC095 34.5 33.3 95% 28 29.51 0.0
14 18:35 NE 12 5.00 Light Rain SCT005 BKN080 OVC095 34.7 33.3 94% 27 29.48 0.0
14 18:15 NE 10 5.00 Light Rain SCT005 SCT029 OVC095 34.7 33.1 94% 28 29.51 0.0
14 17:55 NE 14 5.00 Light Rain OVC095 34.7 33.3 94% 26 29.5 0.0
14 17:35 NE 15 7.00 Light Rain OVC085 34.7 32.9 93% 26 29.5 0.0
14 17:15 NE 13 4.00 Light Rain OVC085 34.7 32.9 93% 27 29.49 0.0
14 16:55 NE 15 5.00 Light Rain SCT006 SCT031 OVC085 35.1 32.9 92% 26 29.48 0.0
14 16:35 NE 10 10.00 Light Rain OVC006 35.8 32.5 88% 29 29.51 0.0
14 16:15 NE 12 10.00 Overcast OVC006 36.1 32.9 88% 29 29.5 0.0
14 15:55 NE 12 10.00 Overcast OVC006 36.7 33.4 38.3 36.1 88% 30 29.48 0.0
14 15:35 NE 10 10.00 Overcast OVC006 36.7 33.8 89% 30 29.5 0.0
14 15:15 E 10 10.00 Overcast OVC006 36.9 33.8 89% 30 29.5 0.0
14 14:55 E 12 10.00 Overcast OVC006 37.2 33.8 87% 30 29.5 0.0
14 14:35 E 12 10.00 Overcast OVC006 37 33.8 88% 30 29.47 0.0
14 14:15 E 12 10.00 Overcast OVC006 37.4 34 87% 30 29.49 0.0
14 13:55 E 14 10.00 Overcast OVC006 37 34.2 89% 29 29.49 0.0
14 13:35 E 17 10.00 Overcast OVC006 37.6 34.3 88% 29 29.48 0.0
14 13:15 E 17 10.00 Overcast OVC006 37.8 35.6 92% 29 29.48 0.0
14 12:55 E 16 10.00 Overcast OVC004 36.7 34.7 93% 28 29.49 0.0
14 12:35 E 16 G 22 10.00 Overcast OVC004 36.7 35.1 94% 28 29.48 0.0
14 12:15 E 17 10.00 Overcast OVC004 36.9 35.6 95% 28 29.49 0.0
14 11:55 E 18 7.00 Overcast OVC004 36.5 35.2 95% 27 29.47 0.0
14 11:35 E 15 G 21 7.00 Overcast OVC002 36.7 35.8 97% 28 29.48 0.0
14 11:15 E 18 3.00 Fog/Mist OVC002 36.5 35.8 97% 27 29.49 0.0
14 10:55 E 14 2.50 Fog/Mist OVC002 36.5 35.6 97% 28 29.49 0.0
14 10:35 E 18 1.00 Fog/Mist OVC002 36.1 35.4 97% 27 29.49 0.0
14 10:15 E 15 0.50 Fog OVC002 36.1 35.6 98% 28 29.49 0.0
14 09:55 E 16 1.50 Fog/Mist OVC002 36.5 35.6 36.5 35.8 97% 28 29.49 0.0
14 09:35 E 16 1.25 Fog/Mist OVC002 36.3 35.6 97% 27 29.48 0.0
14 09:15 E 15 0.50 Fog OVC002 36 35.1 97% 27 29.5 0.0
14 08:55 E 15 0.50 Fog OVC002 35.8 34.9 97% 27 29.5 0.0
14 08:35 E 13 0.50 Fog OVC002 36 35.1 97% 28 29.48 0.0
14 08:15 E 14 0.75 Fog/Mist OVC002 36.3 35.4 97% 28 29.51 0.0
14 07:55 E 14 0.75 Fog/Mist OVC002 36.3 35.6 97% 28 29.51 0.0
14 07:35 E 14 0.50 Fog OVC002 36 35.1 97% 28 29.51 0.0
14 07:15 E 13 0.50 Fog OVC002 35.8 34.9 97% 28 29.51 0.0
14 06:55 E 12 2.50 Fog/Mist OVC002 36 35.1 97% 29 29.51 0.0
14 06:35 E 9 5.00 Fog/Mist OVC002 36 34.9 96% 30 29.5 0.0
14 06:15 E 12 2.50 Fog/Mist OVC002 36.1 35.2 97% 29 29.52 0.0
14 05:55 E 10 0.75 Fog/Mist OVC002 35.8 34.7 96% 29 29.52 0.0
14 05:35 E 9 1.25 Fog/Mist OVC002 35.8 34.7 96% 29 29.52 0.0
14 05:15 E 10 10.00 Light Rain OVC004 35.8 34.7 96% 29 29.52 0.0
14 04:55 NE 9 10.00 Light Rain OVC004 36 34.7 95% 30 29.5 0.0
14 04:35 E 9 10.00 Light Rain OVC004 35.8 34.3 95% 29 29.53 0.0
14 04:15 E 8 7.00 Light Rain OVC004 35.8 34.3 95% 30 29.53 0.0
14 03:55 E 9 10.00 Light Rain OVC004 36 34.3 40.1 36 94% 30 29.52 0.0
14 03:35 E 10 10.00 Overcast OVC004 36.5 34.7 93% 30 29.53 0.0
14 03:15 E 9 10.00 Overcast OVC004 36.7 35.1 94% 31 29.54 0.0
14 02:55 E 7 10.00 Overcast OVC004 36.7 35.1 94% 32 29.52 0.0
14 02:35 E 7 10.00 Overcast OVC004 36.7 34.9 93% 32 29.54 0.0
14 02:15 E 8 10.00 Overcast OVC004 36.9 35.1 93% 31 29.53 0.0
14 01:55 NE 8 10.00 Overcast OVC004 37 35.1 93% 32 29.53 0.0
14 01:35 NE 9 10.00 Overcast OVC004 37 35.1 93% 31 29.53 0.0
14 01:15 NE 9 10.00 Mostly Cloudy BKN004 BKN095 37 35.1 93% 31 29.54 0.0
14 00:55 NE 9 10.00 Partly Cloudy SCT120 37 35.1 93% 31 29.52 0.0
14 00:35 E 8 10.00 Partly Cloudy SCT110 37.4 35.1 91% 32 29.53 0.0
14 00:15 NE 9 10.00 Mostly Cloudy BKN120 38.3 35.6 90% 33 29.54 0.0
13 23:55 E 9 10.00 Mostly Cloudy BKN120 39.4 36.5 89% 34 29.54 0.0
13 23:35 E 8 10.00 Overcast OVC120 39.6 36.7 89% 35 29.54 0.0
13 23:15 E 6 10.00 Mostly Cloudy BKN120 39.7 37.2 91% 36 29.54 0.0
13 22:55 E 7 10.00 Partly Cloudy SCT120 40.1 37.4 90% 36 29.55 0.0
13 22:35 E 8 10.00 Partly Cloudy SCT120 39.6 37 91% 35 29.55 0.0
13 22:15 E 9 10.00 Mostly Cloudy BKN120 39.4 36.7 90% 34 29.54 0.0
13 21:55 E 8 10.00 Mostly Cloudy SCT090 BKN120 39.7 36.7 48.6 39.4 89% 35 29.55 0.0
13 21:35 E 8 10.00 Overcast BKN090 OVC120 40.1 37 89% 35 29.55 0.0
13 21:15 E 7 10.00 Overcast BKN090 OVC120 41 38.1 90% 37 29.55 0.0
13 20:55 E 5 10.00 Overcast OVC090 40.3 37.8 91% 38 29.56 0.0
13 20:35 E 9 10.00 Overcast OVC090 39.7 37.2 91% 34 29.56 0.0
13 20:15 NE 9 10.00 Light Rain SCT038 SCT070 OVC090 39.6 36.7 89% 34 29.55 0.0
13 19:55 NE 8 10.00 Overcast OVC090 39.9 36.9 89% 35 29.55 0.0
13 19:35 NE 7 10.00 Light Rain SCT075 OVC100 41 36.9 85% 37 29.56 0.0
13 19:15 NE 8 10.00 Overcast SCT075 OVC100 42.8 37.9 83% 39 29.56 0.0
13 18:55 NE 6 10.00 Overcast SCT029 SCT060 OVC100 42.8 38.3 84% 40 29.57 0.0
13 18:35 E 6 10.00 Overcast SCT060 SCT070 OVC100 42.1 37.4 84% 39 29.57 0.0
13 18:15 E 8 10.00 Overcast OVC100 43.3 37.4 80% 39 29.56 0.0
13 17:55 E 8 10.00 Mostly Cloudy BKN100 BKN120 43 37.4 81% 39 29.56 0.0
13 17:35 NE 5 10.00 Mostly Cloudy SCT100 BKN120 42.3 36.7 81% 40 29.57 0.0
13 17:15 NE 8 10.00 Mostly Cloudy SCT100 BKN120 43.5 37.4 79% 39 29.56 0.0
13 16:55 NE 8 10.00 Mostly Cloudy BKN110 46 39.2 77% 42 29.57 0.0
13 16:35 E 8 10.00 Mostly Cloudy BKN110 47.8 40.1 75% 45 29.56 0.0
13 16:15 E 7 10.00 Partly Cloudy SCT110 48.6 40.5 74% 46 29.57 0.0
13 15:55 E 6 10.00 Mostly Cloudy BKN110 47.5 39.9 47.5 41.7 75% 45 29.57 0.0
13 15:35 E 6 10.00 Overcast OVC110 46.4 39.2 76% 44 29.57 0.0
13 15:15 E 9 10.00 Overcast OVC110 46.6 38.5 74% 43 29.56 0.0
13 14:55 E 9 10.00 Mostly Cloudy BKN120 46.8 38.5 73% 43 29.56 0.0
13 14:35 NE 8 10.00 Mostly Cloudy BKN120 45.1 37.6 75% 41 29.57 0.0
13 14:15 NE 8 10.00 Mostly Cloudy BKN120 46.8 38.3 73% 43 29.57 0.0
13 13:55 E 9 10.00 Fair CLR 46.9 38.8 74% 43 29.57 0.0
13 13:35 E 8 10.00 Fair CLR 44.8 37.6 76% 41 29.58 0.0
13 13:15 E 9 10.00 Fair CLR 44.1 37 76% 40 29.58 0.0
13 12:55 NE 9 10.00 Fair CLR 44.1 36.7 75% 40 29.58 0.0
13 12:35 E 9 10.00 Fair CLR 43.7 36.5 76% 39 29.58 0.0
13 12:15 NE 10 10.00 Fair CLR 44.6 36.9 74% 40 29.58 0.0
13 11:55 NE 8 10.00 Partly Cloudy SCT100 45.3 37.6 74% 42 29.58 0.0
13 11:35 NE 7 10.00 Fair CLR 45.9 37.9 74% 43 29.58 0.0
13 11:15 NE 8 10.00 Fair CLR 45 38.1 77% 41 29.58 0.0
13 10:55 E 7 10.00 Fair CLR 43 37.2 80% 39 29.58 0.0
13 10:35 E 8 10.00 Fair CLR 41.9 36 80% 37 29.58 0.0
13 10:15 E 10 10.00 Fair CLR 42.8 36.5 79% 38 29.58 0.0
13 09:55 E 10 10.00 Fair CLR 43 36.7 43 36.7 79% 38 29.58 0.0
13 09:35 E 9 10.00 Fair CLR 41.9 36.9 82% 37 29.59 0.0
13 09:15 E 10 10.00 Fair CLR 40.8 36.1 83% 35 29.59 0.0
13 08:55 E 10 10.00 Fair CLR 40.1 36 85% 34 29.59 0.0
13 08:35 E 10 10.00 Fair CLR 39.7 35.6 85% 34 29.59 0.0
13 08:15 E 12 10.00 Fair CLR 39.9 35.6 85% 34 29.6 0.0
13 07:55 E 13 10.00 Fair CLR 40.6 35.6 82% 34 29.59 0.0
13 07:35 E 13 10.00 Fair CLR 41.5 36.5 82% 35 29.6 0.0
13 07:15 E 14 10.00 Fair CLR 41 36.3 83% 34 29.6 0.0
13 06:55 E 12 10.00 Fair CLR 40.3 36 85% 34 29.6 0.0
13 06:35 E 10 10.00 Fair CLR 40.3 35.6 83% 34 29.61 0.0
13 06:15 E 10 10.00 Fair CLR 39.4 36 88% 33 29.62 0.0
13 05:55 E 12 10.00 Fair CLR 38.8 35.6 88% 32 29.62 0.0
13 05:35 E 13 10.00 Fair CLR 38.5 35.6 89% 31 29.62 0.0
13 05:15 E 13 10.00 Fair CLR 38.3 35.4 89% 31 29.62 0.0
13 04:55 E 14 10.00 Partly Cloudy SCT004 37.8 35.2 91% 30 29.63 0.0
13 04:35 E 13 10.00 Fair CLR 37.4 35.2 92% 30 29.63 0.0
13 04:15 E 12 10.00 Fair CLR 37 35.4 94% 30 29.64 0.0
13 03:55 E 9 10.00 Fair CLR 36.7 34.9 40.3 36.5 93% 31 29.63 0.0
13 03:35 E 9 10.00 Partly Cloudy SCT110 36.5 34.7 93% 30 29.63 0.0
13 03:15 E 10 10.00 Partly Cloudy SCT110 36.7 34.9 93% 30 29.64 0.0
13 02:55 E 8 10.00 Partly Cloudy SCT120 36.9 35.1 93% 31 29.66 0.0
13 02:35 E 8 10.00 Partly Cloudy SCT120 36.5 34.9 94% 31 29.64 0.0
13 02:15 E 8 10.00 Mostly Cloudy BKN120 36.5 34.7 93% 31 29.64 0.0
13 01:55 E 7 10.00 Partly Cloudy SCT120 36.5 34.7 93% 32 29.65 0.0
13 01:35 E 8 10.00 Fair CLR 36.5 34.7 93% 31 29.66 0.0
13 01:15 NE 8 10.00 Fair CLR 37 35.1 93% 32 29.67 0.0
13 00:55 E 9 10.00 Fair CLR 37.4 35.4 93% 31 29.68 0.0
13 00:35 E 9 10.00 Fair CLR 37.6 35.2 91% 32 29.68 0.0
13 00:15 E 9 10.00 Fair CLR 38.3 35.6 90% 33 29.68 0.0
12 23:55 E 8 10.00 Fair CLR 38.7 36 90% 34 29.69 0.0
12 23:35 E 7 10.00 Partly Cloudy SCT120 39.6 36.3 88% 35 29.69 0.0
12 23:15 E 8 10.00 Mostly Cloudy BKN120 40.3 36.9 88% 35 29.69 0.0
12 22:55 E 10 10.00 Overcast OVC120 40.3 36.9 88% 34 29.69 0.0
12 22:35 E 10 10.00 Overcast OVC120 40.1 36.5 87% 34 29.69 0.0
12 22:15 E 12 10.00 Overcast OVC120 40.3 36.3 86% 34 29.7 0.0
12 21:55 E 14 10.00 Mostly Cloudy BKN110 40.3 36.1 49.3 40.3 85% 33 29.7 0.0
12 21:35 E 15 10.00 Partly Cloudy SCT110 41.5 36 81% 34 29.71 0.0
12 21:15 NE 13 10.00 Partly Cloudy SCT110 43.7 37.9 80% 38 29.71 0.0
12 20:55 E 9 10.00 Partly Cloudy SCT120 44.1 38.7 81% 40 29.72 0.0
12 20:35 E 12 10.00 Mostly Cloudy BKN120 44.1 39.2 83% 39 29.72 0.0
12 20:15 E 10 10.00 Overcast OVC110 43.2 37.9 82% 38 29.73 0.0
12 19:55 E 10 10.00 Mostly Cloudy BKN120 45 38.1 77% 40 29.73 0.0
12 19:35 E 7 10.00 Partly Cloudy SCT120 47.7 40.1 75% 45 29.74 0.0
12 19:15 NE 9 10.00 Partly Cloudy SCT120 47.5 40.3 76% 44 29.74 0.0
12 18:55 E 10 10.00 Fair CLR 47.1 39.2 74% 43 29.74 0.0
12 18:35 E 10 10.00 Fair CLR 48.7 39.4 70% 45 29.75 0.0
12 18:15 E 9 10.00 Partly Cloudy SCT120 48.4 38.3 68% 45 29.76 0.0
12 17:55 E 12 10.00 Partly Cloudy SCT110 46.4 37 70% 42 29.76 0.0
12 17:35 E 10 10.00 Partly Cloudy SCT110 45.9 36.5 70% 41 29.77 0.0
12 17:15 E 9 10.00 Mostly Cloudy BKN110 45.7 36.5 70% 42 29.77 0.0
12 16:55 E 8 10.00 Overcast OVC110 43.7 35.6 73% 40 29.77 0.0
12 16:35 NE 8 10.00 Overcast OVC110 45.5 36.7 71% 42 29.78 0.0
12 16:15 NE 7 10.00 Overcast OVC110 44.2 36 73% 41 29.79 0.0
12 15:55 NE 8 10.00 Mostly Cloudy BKN110 44.6 36 46.4 38.8 72% 41 29.79 0.0
12 15:35 NE 6 10.00 Fair CLR 45.9 36.3 69% 43 29.79 0.0
12 15:15 NE 7 10.00 Partly Cloudy SCT110 45.9 36.3 69% 43 29.79 0.0
12 14:55 NE 7 10.00 Partly Cloudy SCT110 46 36 68% 43 29.79 0.0
12 14:35 NE 6 10.00 Fair CLR 46.4 36 67% 44 29.8 0.0
12 14:15 NE 5 10.00 Fair CLR 45.7 35.6 68% 44 29.81 0.0
12 13:55 NE 6 10.00 Partly Cloudy SCT090 45.1 35.2 68% 43 29.81 0.0
12 13:35 NE 6 10.00 Partly Cloudy SCT090 45.9 35.6 68% 43 29.81 0.0
12 13:15 NE 5 10.00 Fair CLR 45.5 35.6 68% 44 29.82 0.0
12 12:55 N 5 10.00 Fair CLR 46 35.6 67% 44 29.82 0.0
12 12:35 Calm 10.00 Fair CLR 45 34.7 67% 29.83 0.0
12 12:15 NE 3 10.00 Fair CLR 44.8 35.1 69% 29.83 0.0
12 11:55 NE 6 10.00 Partly Cloudy SCT110 44.8 34.7 68% 42 29.83 0.0
12 11:35 NE 5 10.00 Overcast OVC110 44.2 33.8 67% 42 29.83 0.0
12 11:15 N 5 10.00 Overcast OVC110 43.5 34 69% 41 29.84 0.0
12 10:55 N 3 10.00 Overcast OVC110 42.6 34.3 73% 29.84 0.0
12 10:35 N 3 10.00 Overcast OVC110 41.5 34.2 75% 29.84 0.0
12 10:15 Calm 10.00 Overcast OVC110 41.2 34.9 78% 29.85 0.0
12 09:55 N 5 10.00 Mostly Cloudy BKN110 38.7 33.8 38.7 33.1 83% 36 29.86 0.0
12 09:35 N 5 10.00 Partly Cloudy SCT110 37 32.2 83% 34 29.86 0.0
12 09:15 N 5 10.00 Fair CLR 36.9 32 83% 34 29.86 0.0
12 08:55 NW 5 10.00 Partly Cloudy SCT110 36.5 32 84% 33 29.87 0.0
12 08:35 NW 5 10.00 Mostly Cloudy BKN110 36.3 31.8 84% 33 29.87 0.0
12 08:15 NW 5 10.00 Mostly Cloudy BKN110 35.8 31.6 85% 32 29.87 0.0
12 07:55 NW 5 10.00 Overcast OVC110 35.1 31.6 87% 32 29.86 0.0
12 07:35 NW 5 10.00 Mostly Cloudy BKN110 34.7 31.6 89% 31 29.86 0.0
12 07:15 NW 5 10.00 Overcast SCT005 OVC110 35.4 32 87% 32 29.87 0.0
12 06:55 NW 3 10.00 Overcast BKN005 OVC110 35.1 32.9 92% 29.88 0.0
12 06:35 Calm 10.00 Overcast OVC005 34.9 33.3 94% 29.87 0.0
12 06:15 Calm 10.00 Overcast OVC005 35.1 33.8 95% 29.88 0.0
12 05:55 Calm 10.00 Overcast OVC005 35.1 33.8 95% 29.87 0.0
12 05:35 Calm 10.00 Overcast OVC003 33.8 32.4 94% 29.88 0.0
12 05:15 NE 3 10.00 Overcast OVC003 33.8 32.2 94% 29.88 0.0
12 04:55 Calm 10.00 Mostly Cloudy BKN003 34.2 32.9 95% 29.9 0.0
12 04:35 NE 3 10.00 Mostly Cloudy BKN003 33.8 32.2 94% 29.9 0.0
12 04:15 NE 5 10.00 Overcast OVC003 33.3 32 95% 30 29.9 0.0
12 03:55 NE 6 10.00 Overcast OVC003 33.1 32 34.3 32.9 96% 28 29.9 0.0
12 03:35 NE 6 10.00 Overcast OVC003 32.9 31.8 96% 28 29.89 0.0
Date Time (akdt) Wind (mph) Vis. (mi.) Weather Sky Cond. Air Dwpt Max. Min. Relative Humidity Wind Chill (°F) Heat Index (°F) altimeter (in) sea level (mb) 1 hr 3 hr 6 hr
6 hour
Temperature (ºF) Pressure Precipitation (in)